Location: Haliburton Scout Reserve
(45.0900°N, 78.3200°W)
Time: 08:11:21
(UTC-04:00)

S-56A Canister/Altair - Pass Details

Date: 05 February 2023
Orbit: 639 x 2493 km, 38.9° (Epoch: 27 March)

Event Time Altitude Azimuth Distance (km) Brightness Sun altitude
Rises 09:32:05 0° 209° (SSW) 2,976 10.8 17.2°
Reaches altitude 10° 09:35:20 10° 184° (S) 2,015 10.4 17.6°
Maximum altitude 09:37:49 15° 150° (SSE) 1,739 11.6 17.9°
Drops below altitude 10° 09:40:24 10° 115° (ESE) 2,097 11.3 18.2°
Sets 09:43:53 0° 92° (E) 3,178 11.4 18.7°
